This is the latest recevied weather packets stored in our database for station/object K5FEP. If no packets are shown the sender has not sent any weather packets the latest 10 day(s).
| Time | Temp. | Humidity | Pressure | Rain* | Wind** | Luminosity | Snow |
|---|---|---|---|---|---|---|---|
| 1788465115 | 37.22° C | 37% | 1014.6 hPa | 0 mm | - | 132 W/m² | - |
| 1788464814 | 37.78° C | 37% | 1014.6 hPa | 0 mm | - | 133 W/m² | - |
| 1788464509 | 38.33° C | 35% | 1014.9 hPa | 0 mm | - | 232 W/m² | - |
| 1788464206 | 37.78° C | 36% | 1014.8 hPa | 0 mm | - | 739 W/m² | - |
| 1788463906 | 38.33° C | 35% | 1014.9 hPa | 0 mm | - | 796 W/m² | - |
| 1788463603 | 37.78° C | 36% | 1015.1 hPa | 0 mm | - | 792 W/m² | - |
| 1788463303 | 37.22° C | 37% | 1014.9 hPa | 0 mm | - | 346 W/m² | - |
| 1788462999 | 37.78° C | 36% | 1014.9 hPa | 0 mm | - | 204 W/m² | - |
| 1788462699 | 37.78° C | 36% | 1015 hPa | 0 mm | - | 308 W/m² | - |
| 1788462398 | 36.67° C | 39% | 1015.1 hPa | 0 mm | - | 484 W/m² | - |
| 1788462093 | 36.67° C | 38% | 1015.2 hPa | 0 mm | - | 176 W/m² | - |
| 1788461788 | 36.67° C | 39% | 1015.2 hPa | 0 mm | - | 161 W/m² | - |
| 1788461483 | 37.22° C | 37% | 1015.4 hPa | 0 mm | - | 158 W/m² | - |
| 1788461180 | 37.78° C | 36% | 1015.4 hPa | 0 mm | - | 276 W/m² | - |
| 1788460875 | 37.78° C | 37% | 1015.6 hPa | 0 mm | - | 911 W/m² | - |
| 1788460574 | 37.78° C | 37% | 1015.5 hPa | 0 mm | - | 889 W/m² | - |
| 1788460269 | 37.78° C | 37% | 1015.5 hPa | 0 mm | - | 655 W/m² | - |
| 1788459968 | 37.78° C | 37% | 1015.6 hPa | 0 mm | - | 901 W/m² | - |
| 1788459664 | 37.78° C | 37% | 1015.5 hPa | 0 mm | - | 886 W/m² | - |
| 1788459362 | 37.22° C | 39% | 1015.6 hPa | 0 mm | - | 883 W/m² | - |
| 1788459057 | 36.67° C | 39% | 1015.7 hPa | 0 mm | - | 938 W/m² | - |
| 1788458752 | 36.67° C | 38% | 1015.7 hPa | 0 mm | - | 938 W/m² | - |
| 1788458447 | 36.11° C | 41% | 1016.1 hPa | 0 mm | - | 944 W/m² | - |
| 1788458146 | 36.11° C | 43% | 1016 hPa | 0 mm | - | 263 W/m² | - |
| 1788457857 | 35.56° C | 44% | 1016.3 hPa | 0 mm | - | 220 W/m² | - |
* Rain latest hour (hover to see other rain measurements)
** Current wind speed in m/s (hover to see current wind gust speed)